User: anonymous   Login
Location: Unspecified
(0.0000°N, 0.0000°E)
Time: 11:25:12
(UTC+02:00)
Language:

ATLAS V CENTAUR R/B - Orbit

View from above orbital plane
View from above orbital plane
View from above satellite
View from above satellite

Ground track
Ground track

The orbit data is extracted from the following two-line orbital elements,

1 27500U 02038B   17230.35656092  .00002747  00000-0  53594-3 0  9995
2 27500  18.1580  24.1946 6755908  17.7367 357.3910  2.96958602127797
Epoch (UTC): 18 August 2017 08:33:26
Eccentricity: 0.6755908
inclination: 18.1580°
perigee height: 254 km
apogee height: 27880 km
right ascension of ascending node: 24.1946°
argument of perigee: 17.7367°
revolutions per day: 2.96958602
mean anomaly at epoch: 357.3910°
orbit number at epoch: 12779

The dashed part of the orbit path shows where the satellite is in the earth's shadow,  

DLR